W2LTF Weather Reports


Display with metric or nautical units.
time (UTC)temp
F
wind
direction
speed
MPH
gust
MPH
rain 1hr
in
rain 24hr
in
rain mn
in
humidity
%
barometer
mb
20260505224004 76 0 0.0 0.0 0.00 0.00 0.00 39 1003.3
20260505223506 76 0 0.0 0.0 0.00 0.00 0.00 39 1003.0
20260505222503 77 0 0.0 0.0 0.00 0.00 0.00 39 1002.7
20260505221503 77 0 0.0 0.0 0.00 0.00 0.00 39 1003.0
20260505221004 77 0 0.0 0.0 0.00 0.00 0.00 38 1002.7
20260505220503 77 0 0.0 0.0 0.00 0.00 0.00 38 1003.0
20260505220004 78 0 0.0 0.0 0.00 0.00 0.00 38 1003.0
20260505215503 78 0 0.0 0.0 0.00 0.00 0.00 37 1002.7
20260505215004 78 0 0.0 0.0 0.00 0.00 0.00 37 1002.7
20260505214503 79 0 0.0 0.0 0.00 0.00 0.00 37 1002.7
20260505214004 79 0 0.0 0.0 0.00 0.00 0.00 37 1002.7
20260505213504 80 0 0.0 0.0 0.00 0.00 0.00 37 1002.7
20260505213004 80 0 0.0 0.0 0.00 0.00 0.00 35 1002.7
20260505212004 81 0 0.0 0.0 0.00 0.00 0.00 35 1002.7
20260505211004 81 0 0.0 0.0 0.00 0.00 0.00 35 1002.7
20260505210004 82 0 0.0 0.0 0.00 0.00 0.00 35 1002.3
20260505205505 82 0 0.0 0.0 0.00 0.00 0.00 35 1002.3
20260505205003 82 0 0.0 0.0 0.00 0.00 0.00 35 1002.3
20260505204003 83 0 0.0 0.0 0.00 0.00 0.00 35 1002.7
20260505203504 83 0 0.0 0.0 0.00 0.00 0.00 35 1002.3
20260505203004 83 0 0.0 0.0 0.00 0.00 0.00 35 1002.3
20260505201504 83 0 0.0 0.0 0.00 0.00 0.00 35 1002.7
20260505200504 83 0 0.0 0.0 0.00 0.00 0.00 35 1002.7
20260505200004 83 0 0.0 0.0 0.00 0.00 0.00 35 1002.7
20260505195004 83 0 0.0 0.0 0.00 0.00 0.00 37 1002.7
20260505194503 82 0 0.0 0.0 0.00 0.00 0.00 37 1002.7
20260505193004 84 0 0.0 0.0 0.00 0.00 0.00 37 1002.7
20260505192004 84 0 0.0 0.0 0.00 0.00 0.00 38 1002.7
20260505191504 84 0 0.0 0.0 0.00 0.00 0.00 38 1003.0
20260505191003 83 0 0.0 0.0 0.00 0.00 0.00 39 1002.7
20260505190503 83 0 0.0 0.0 0.00 0.00 0.00 40 1003.0
20260505190004 82 0 0.0 0.0 0.00 0.00 0.00 39 1003.0
20260505185504 82 0 0.0 0.0 0.00 0.00 0.00 39 1003.0
20260505184004 83 0 0.0 0.0 0.00 0.00 0.00 40 1003.3
20260505183504 83 0 0.0 0.0 0.00 0.00 0.00 40 1003.3
20260505183004 83 0 0.0 0.0 0.00 0.00 0.00 40 1003.3
20260505182504 83 0 0.0 0.0 0.00 0.00 0.00 40 1003.3
20260505182004 83 0 0.0 0.0 0.00 0.00 0.00 40 1003.7
20260505181504 82 0 0.0 0.0 0.00 0.00 0.00 40 1003.7
20260505181003 82 0 0.0 0.0 0.00 0.00 0.00 40 1003.7
20260505180503 82 0 0.0 0.0 0.00 0.00 0.00 40 1003.7
20260505180004 81 0 0.0 0.0 0.00 0.00 0.00 40 1004.0
20260505175504 81 0 0.0 0.0 0.00 0.00 0.00 42 1003.7
20260505174504 81 0 0.0 0.0 0.00 0.00 0.00 42 1003.7
20260505174003 81 0 0.0 0.0 0.00 0.00 0.00 44 1003.7
20260505173504 81 0 0.0 0.0 0.00 0.00 0.00 44 1003.7
20260505173003 81 0 0.0 0.0 0.00 0.00 0.00 44 1004.0
20260505172004 80 0 0.0 0.0 0.00 0.00 0.00 45 1004.0
20260505171503 80 0 0.0 0.0 0.00 0.00 0.00 45 1004.0
20260505171004 79 0 0.0 0.0 0.00 0.00 0.00 45 1004.0
20260505170504 79 0 0.0 0.0 0.00 0.00 0.00 45 1004.4
20260505165504 79 0 0.0 0.0 0.00 0.00 0.00 45 1004.4
20260505165004 78 0 0.0 0.0 0.00 0.00 0.00 45 1004.4
20260505164504 78 0 0.0 0.0 0.00 0.00 0.00 46 1004.4
20260505164004 78 0 0.0 0.0 0.00 0.00 0.00 47 1004.7
20260505163504 78 0 0.0 0.0 0.00 0.00 0.00 47 1004.7
20260505163003 78 0 0.0 0.0 0.00 0.00 0.00 47 1004.7
20260505162504 77 0 0.0 0.0 0.00 0.00 0.00 48 1004.7
20260505162003 77 0 0.0 0.0 0.00 0.00 0.00 48 1004.7
20260505161504 77 0 0.0 0.0 0.00 0.00 0.00 49 1004.7
20260505161004 76 0 0.0 0.0 0.00 0.00 0.00 49 1004.7
20260505160503 76 0 0.0 0.0 0.00 0.00 0.00 49 1005.0
20260505152004 74 0 0.0 0.0 0.00 0.00 0.00 52 1005.4
20260505151503 73 0 0.0 0.0 0.00 0.00 0.00 52 1005.4
20260505151004 73 0 0.0 0.0 0.00 0.00 0.00 52 1005.4
20260505150504 73 0 0.0 0.0 0.00 0.00 0.00 52 1005.4
20260505140504 71 0 0.0 0.0 0.00 0.00 0.00 55 1006.0
20260505125003 69 0 0.0 0.0 0.00 0.00 0.00 60 1006.0
20260505124504 68 0 0.0 0.0 0.00 0.00 0.00 61 1006.0
20260505124004 67 0 0.0 0.0 0.00 0.00 0.00 63 1005.7
20260505123504 66 0 0.0 0.0 0.00 0.00 0.00 65 1005.4
20260505123004 65 0 0.0 0.0 0.00 0.00 0.00 65 1005.4
20260505122504 64 0 0.0 0.0 0.00 0.00 0.00 66 1005.4
20260505122004 63 0 0.0 0.0 0.00 0.00 0.00 67 1005.4
20260505121503 62 0 0.0 0.0 0.00 0.00 0.00 67 1005.4
20260505121004 62 0 0.0 0.0 0.00 0.00 0.00 68 1005.4
20260505120504 62 0 0.0 0.0 0.00 0.00 0.00 69 1005.4
20260505120004 61 0 0.0 0.0 0.00 0.00 0.00 69 1005.4
20260505115505 61 0 0.0 0.0 0.00 0.00 0.00 69 1005.4
20260505114504 60 0 0.0 0.0 0.00 0.00 0.00 70 1005.7
20260505114004 60 0 0.0 0.0 0.00 0.00 0.00 70 1005.7
20260505113504 59 0 0.0 0.0 0.00 0.00 0.00 71 1005.7
20260505113004 58 0 0.0 0.0 0.00 0.00 0.00 72 1005.7
20260505112503 58 0 0.0 0.0 0.00 0.00 0.00 73 1005.4
20260505111504 56 0 0.0 0.0 0.00 0.00 0.00 72 1005.4
20260505111004 55 0 0.0 0.0 0.00 0.00 0.00 71 1005.4
20260505110504 56 0 0.0 0.0 0.00 0.00 0.00 71 1005.0
20260505102004 56 0 0.0 0.0 0.00 0.00 0.00 64 1005.4
20260505101004 56 0 0.0 0.0 0.00 0.00 0.00 64 1005.7
20260505100003 55 0 0.0 0.0 0.00 0.00 0.00 64 1005.4
20260505094504 55 0 0.0 0.0 0.00 0.00 0.00 63 1005.4
20260505094004 55 0 0.0 0.0 0.00 0.00 0.00 63 1005.4
20260505093004 55 0 0.0 0.0 0.00 0.00 0.00 63 1005.0
20260505092003 55 0 0.0 0.0 0.00 0.00 0.00 62 1005.0
20260505091504 55 0 0.0 0.0 0.00 0.00 0.00 62 1005.0
20260505091003 55 0 0.0 0.0 0.00 0.00 0.00 62 1005.0
20260505090504 55 0 0.0 0.0 0.00 0.00 0.00 62 1005.0
20260505090004 55 0 0.0 0.0 0.00 0.00 0.00 61 1004.7
20260505085504 55 0 0.0 0.0 0.00 0.00 0.00 61 1004.7
20260505085004 56 0 0.0 0.0 0.00 0.00 0.00 61 1004.7
20260505084503 56 0 0.0 0.0 0.00 0.00 0.00 60 1004.7
20260505084004 56 0 0.0 0.0 0.00 0.00 0.00 60 1004.7
20260505083504 56 0 0.0 0.0 0.00 0.00 0.00 60 1004.7
20260505082503 56 0 0.0 0.0 0.00 0.00 0.00 59 1004.7
20260505082004 56 0 0.0 0.0 0.00 0.00 0.00 59 1004.7
20260505081504 56 0 0.0 0.0 0.00 0.00 0.00 58 1004.7
20260505081004 56 0 0.0 0.0 0.00 0.00 0.00 58 1004.7
20260505080004 57 0 0.0 0.0 0.00 0.00 0.00 58 1004.7
20260505075504 57 0 0.0 0.0 0.00 0.00 0.00 58 1004.7
20260505075003 57 0 0.0 0.0 0.00 0.00 0.00 57 1004.7
20260505074504 57 0 0.0 0.0 0.00 0.00 0.00 57 1004.7
20260505074004 57 0 0.0 0.0 0.00 0.00 0.00 57 1004.7
20260505073504 57 0 0.0 0.0 0.00 0.00 0.00 57 1004.7
20260505073004 57 0 0.0 0.0 0.00 0.00 0.00 57 1004.7
20260505072503 57 0 0.0 0.0 0.00 0.00 0.00 57 1004.7
20260505072004 57 0 0.0 0.0 0.00 0.00 0.00 56 1004.7
20260505071503 57 0 0.0 0.0 0.00 0.00 0.00 56 1004.7
20260505071004 57 0 0.0 0.0 0.00 0.00 0.00 56 1004.7
20260505070504 57 0 0.0 0.0 0.00 0.00 0.00 56 1004.7
20260505064504 58 0 0.0 0.0 0.00 0.00 0.00 56 1004.7
20260505064004 58 0 0.0 0.0 0.00 0.00 0.00 56 1004.7
20260505063004 58 0 0.0 0.0 0.00 0.00 0.00 55 1004.7
20260505062503 58 0 0.0 0.0 0.00 0.00 0.00 55 1004.7
20260505062004 58 0 0.0 0.0 0.00 0.00 0.00 55 1004.7
20260505061004 58 0 0.0 0.0 0.00 0.00 0.00 55 1004.7
20260505060503 58 0 0.0 0.0 0.00 0.00 0.00 55 1004.7
20260505060004 58 0 0.0 0.0 0.00 0.00 0.00 55 1004.7
20260505055504 58 0 0.0 0.0 0.00 0.00 0.00 54 1004.7
20260505055004 58 0 0.0 0.0 0.00 0.00 0.00 54 1004.7
20260505054504 58 0 0.0 0.0 0.00 0.00 0.00 54 1004.7
20260505054004 58 0 0.0 0.0 0.00 0.00 0.00 54 1004.7
20260505053504 58 0 0.0 0.0 0.00 0.00 0.00 53 1005.0
20260505053004 58 0 0.0 0.0 0.00 0.00 0.00 53 1005.0
20260505052504 58 0 0.0 0.0 0.00 0.00 0.00 53 1005.0
20260505052003 58 0 0.0 0.0 0.00 0.00 0.00 53 1005.0
20260505051504 58 0 0.0 0.0 0.00 0.00 0.00 53 1005.0
20260505050504 59 0 0.0 0.0 0.00 0.00 0.00 52 1005.0
20260505041504 59 0 0.0 0.0 0.00 0.00 0.00 51 1005.0
20260505041004 60 0 0.0 0.0 0.00 0.00 0.00 51 1005.0
20260505040504 60 0 0.0 0.0 0.00 0.00 0.00 50 1004.7
20260505040004 60 0 0.0 0.0 0.00 0.00 0.00 50 1004.7
20260505035504 60 0 0.0 0.0 0.00 0.00 0.00 50 1004.7
20260505035004 60 0 0.0 0.0 0.00 0.00 0.00 50 1005.0
20260505034504 60 0 0.0 0.0 0.00 0.00 0.00 50 1005.0
20260505033504 60 0 0.0 0.0 0.00 0.00 0.00 50 1005.0
20260505033003 60 0 0.0 0.0 0.00 0.00 0.00 50 1005.0
20260505032504 61 0 0.0 0.0 0.00 0.00 0.00 49 1005.0
20260505032004 61 0 0.0 0.0 0.00 0.00 0.00 49 1005.0
20260505031504 61 0 0.0 0.0 0.00 0.00 0.00 49 1005.0
20260505031004 61 0 0.0 0.0 0.00 0.00 0.00 49 1005.0
20260505030504 61 0 0.0 0.0 0.00 0.00 0.00 49 1005.0
20260505030003 61 0 0.0 0.0 0.00 0.00 0.00 49 1005.4
20260505025004 61 0 0.0 0.0 0.00 0.00 0.00 49 1005.0
20260505024504 61 0 0.0 0.0 0.00 0.00 0.00 49 1005.0
20260505024003 61 0 0.0 0.0 0.00 0.00 0.00 49 1005.0
20260505023504 61 0 0.0 0.0 0.00 0.00 0.00 49 1005.0
20260505023004 61 0 0.0 0.0 0.00 0.00 0.00 48 1005.0
20260505022504 61 0 0.0 0.0 0.00 0.00 0.00 48 1005.4
20260505022003 61 0 0.0 0.0 0.00 0.00 0.00 48 1005.4
20260505021504 61 0 0.0 0.0 0.00 0.00 0.00 48 1005.4
20260505020504 61 0 0.0 0.0 0.00 0.00 0.00 48 1005.4
20260505020004 61 0 0.0 0.0 0.00 0.00 0.00 47 1005.4
20260505015004 62 0 0.0 0.0 0.00 0.00 0.00 47 1005.4
20260505014004 62 0 0.0 0.0 0.00 0.00 0.00 47 1005.4
20260505013504 62 0 0.0 0.0 0.00 0.00 0.00 47 1005.4
20260505013004 62 0 0.0 0.0 0.00 0.00 0.00 47 1005.4
20260505012504 62 0 0.0 0.0 0.00 0.00 0.00 47 1005.0
20260505012004 62 0 0.0 0.0 0.00 0.00 0.00 47 1005.0
20260505011503 62 0 0.0 0.0 0.00 0.00 0.00 47 1005.0
20260505011004 62 0 0.0 0.0 0.00 0.00 0.00 47 1005.0
20260505010504 63 0 0.0 0.0 0.00 0.00 0.00 46 1005.0
20260505010004 63 0 0.0 0.0 0.00 0.00 0.00 46 1005.0
20260505005504 63 0 0.0 0.0 0.00 0.00 0.00 46 1005.0
20260505005004 63 0 0.0 0.0 0.00 0.00 0.00 46 1004.7
20260505004504 63 0 0.0 0.0 0.00 0.00 0.00 46 1005.0
20260505003504 64 0 0.0 0.0 0.00 0.00 0.00 45 1004.7
20260505003004 64 0 0.0 0.0 0.00 0.00 0.00 45 1004.7
20260505002503 64 0 0.0 0.0 0.00 0.00 0.00 45 1004.7
20260505002004 64 0 0.0 0.0 0.00 0.00 0.00 44 1004.7
20260505001504 64 0 0.0 0.0 0.00 0.00 0.00 44 1004.4
20260505000504 65 0 0.0 0.0 0.00 0.00 0.00 44 1004.4
20260505000004 65 0 0.0 0.0 0.00 0.00 0.00 44 1004.4
20260504235003 65 0 0.0 0.0 0.00 0.00 0.00 43 1004.0
20260504234504 65 0 0.0 0.0 0.00 0.00 0.00 43 1004.0
20260504233504 66 0 0.0 0.0 0.00 0.00 0.00 42 1003.7
20260504233004 66 0 0.0 0.0 0.00 0.00 0.00 42 1003.7
20260504232504 66 0 0.0 0.0 0.00 0.00 0.00 41 1003.7
20260504232004 67 0 0.0 0.0 0.00 0.00 0.00 41 1003.7
20260504231504 67 0 0.0 0.0 0.00 0.00 0.00 41 1003.7
20260504231003 67 0 0.0 0.0 0.00 0.00 0.00 41 1003.7
20260504230504 67 0 0.0 0.0 0.00 0.00 0.00 40 1003.6
20260504230003 68 0 0.0 0.0 0.00 0.00 0.00 40 1003.7
20260504225504 68 0 0.0 0.0 0.00 0.00 0.00 40 1003.3
20260504225004 68 0 0.0 0.0 0.00 0.00 0.00 40 1003.6
20260504224505 68 0 0.0 0.0 0.00 0.00 0.00 40 1003.3